This is the latest recevied weather packets stored in our database for station/object PP5EO-15. If no packets are shown the sender has not sent any weather packets the latest 10 day(s).
| Time | Temp. | Humidity | Pressure | Rain* | Wind** | Luminosity | Snow |
|---|---|---|---|---|---|---|---|
| 1777644603 | 44.44° C | 20% | 1018.2 hPa | - | - | - | - |
| 1777644008 | 43.89° C | 21% | 1018.4 hPa | - | - | - | - |
| 1777643413 | 43.33° C | 21% | 1018.7 hPa | - | - | - | - |
| 1777642818 | 42.78° C | 22% | 1018.8 hPa | - | - | - | - |
| 1777642223 | 42.22° C | 24% | 1019 hPa | - | - | - | - |
| 1777641629 | 41.11° C | 25% | 1019.1 hPa | - | - | - | - |
| 1777641035 | 40° C | 26% | 1019.2 hPa | - | - | - | - |
| 1777640438 | 40° C | 27% | 1019.2 hPa | - | - | - | - |
| 1777639843 | 38.89° C | 27% | 1019.3 hPa | - | - | - | - |
| 1777639248 | 39.44° C | 27% | 1019.3 hPa | - | - | - | - |
| 1777638653 | 40° C | 27% | 1019.3 hPa | - | - | - | - |
| 1777638059 | 39.44° C | 28% | 1019.3 hPa | - | - | - | - |
| 1777637463 | 38.89° C | 29% | 1019.3 hPa | - | - | - | - |
| 1777636868 | 37.22° C | 32% | 1019.3 hPa | - | - | - | - |
| 1777636273 | 35.56° C | 36% | 1019.3 hPa | - | - | - | - |
| 1777635678 | 33.89° C | 39% | 1019.2 hPa | - | - | - | - |
| 1777635083 | 32.22° C | 42% | 1019.1 hPa | - | - | - | - |
| 1777634488 | 30.56° C | 46% | 1019 hPa | - | - | - | - |
| 1777633894 | 29.44° C | 49% | 1018.8 hPa | - | - | - | - |
| 1777633081 | 28.89° C | 50% | 1018.8 hPa | - | - | - | - |
| 1777632487 | 28.33° C | 50% | 1018.7 hPa | - | - | - | - |
| 1777631891 | 28.33° C | 50% | 1018.6 hPa | - | - | - | - |
| 1777631296 | 28.33° C | 51% | 1018.4 hPa | - | - | - | - |
| 1777630701 | 28.33° C | 51% | 1018.3 hPa | - | - | - | - |
| 1777630106 | 27.78° C | 51% | 1018 hPa | - | - | - | - |
* Rain since midnight (hover to see other rain measurements)
** Current wind speed in m/s (hover to see current wind gust speed)